Time,TemperatureF,DewpointF,PressureIn,WindDirection,WindDirectionDegrees,WindSpeedMPH,WindSpeedGustMPH,Humidity,HourlyPrecipIn,Conditions,Clouds,dailyrainin,SoftwareType,DateUTC
2013-02-08 00:00:00,20.5,5.7,-100.00,North,-999,-999.0,-999.0,52,-99.99,,,-99.99,,2013-02-08 05:00:00,
2013-02-08 00:10:00,20.7,5.9,-100.00,North,-999,-999.0,-999.0,52,-99.99,,,-99.99,,2013-02-08 05:10:00,
2013-02-08 00:20:00,20.7,5.9,-100.00,North,-999,-999.0,-999.0,52,-99.99,,,-99.99,,2013-02-08 05:20:00,
2013-02-08 00:30:00,20.7,5.9,-100.00,North,-999,-999.0,-999.0,52,-99.99,,,-99.99,,2013-02-08 05:30:00,
2013-02-08 00:40:00,20.7,6.3,-100.00,North,-999,-999.0,-999.0,53,-99.99,,,-99.99,,2013-02-08 05:40:00,
2013-02-08 00:50:00,20.5,6.1,-100.00,North,-999,-999.0,-999.0,53,-99.99,,,-99.99,,2013-02-08 05:50:00,
2013-02-08 01:00:00,20.3,6.3,-100.00,North,-999,-999.0,-999.0,54,-99.99,,,-99.99,,2013-02-08 06:00:00,
2013-02-08 01:10:00,20.2,6.6,-100.00,North,-999,-999.0,-999.0,55,-99.99,,,-99.99,,2013-02-08 06:10:00,
2013-02-08 01:20:00,20.3,7.5,-100.00,North,-999,-999.0,-999.0,57,-99.99,,,-99.99,,2013-02-08 06:20:00,
2013-02-08 01:30:00,20.3,8.2,-100.00,North,-999,-999.0,-999.0,59,-99.99,,,-99.99,,2013-02-08 06:30:00,
2013-02-08 01:40:00,20.5,9.1,-100.00,North,-999,-999.0,-999.0,61,-99.99,,,-99.99,,2013-02-08 06:40:00,
2013-02-08 01:50:00,20.7,10.0,-100.00,North,-999,-999.0,-999.0,63,-99.99,,,-99.99,,2013-02-08 06:50:00,
2013-02-08 02:00:00,20.7,10.4,-100.00,North,-999,-999.0,-999.0,64,-99.99,,,-99.99,,2013-02-08 07:00:00,
2013-02-08 02:10:00,20.9,10.9,-100.00,North,-999,-999.0,-999.0,65,-99.99,,,-99.99,,2013-02-08 07:10:00,
2013-02-08 02:20:00,21.2,12.0,-100.00,North,-999,-999.0,-999.0,67,-99.99,,,-99.99,,2013-02-08 07:20:00,
2013-02-08 02:30:00,21.4,12.6,-100.00,North,-999,-999.0,-999.0,68,-99.99,,,-99.99,,2013-02-08 07:30:00,
2013-02-08 02:40:00,21.8,13.5,-100.00,North,-999,-999.0,-999.0,70,-99.99,,,-99.99,,2013-02-08 07:40:00,
2013-02-08 02:50:00,21.8,13.5,-100.00,North,-999,-999.0,-999.0,70,-99.99,,,-99.99,,2013-02-08 07:50:00,
2013-02-08 03:10:00,22.1,14.5,-100.00,North,-999,-999.0,-999.0,72,-99.99,,,-99.99,,2013-02-08 08:10:00,
2013-02-08 03:20:00,22.3,15.3,-100.00,North,-999,-999.0,-999.0,74,-99.99,,,-99.99,,2013-02-08 08:20:00,
2013-02-08 03:30:00,22.3,15.3,-100.00,North,-999,-999.0,-999.0,74,-99.99,,,-99.99,,2013-02-08 08:30:00,
2013-02-08 03:40:00,22.5,15.8,-100.00,North,-999,-999.0,-999.0,75,-99.99,,,-99.99,,2013-02-08 08:40:00,
2013-02-08 03:50:00,22.5,15.4,-100.00,North,-999,-999.0,-999.0,74,-99.99,,,-99.99,,2013-02-08 08:50:00,
2013-02-08 04:00:00,22.5,15.8,-100.00,North,-999,-999.0,-999.0,75,-99.99,,,-99.99,,2013-02-08 09:00:00,
2013-02-08 04:10:00,-1.0,0.0,-100.00,North,-999,-999.0,-999.0,0,-99.99,,,-99.99,,2013-02-08 09:10:00,
2013-02-08 04:20:00,-1.0,0.0,-100.00,North,-999,-999.0,-999.0,0,-99.99,,,-99.99,,2013-02-08 09:20:00,
2013-02-08 04:30:00,22.9,16.5,-100.00,North,-999,-999.0,-999.0,76,-99.99,,,-99.99,,2013-02-08 09:30:00,
2013-02-08 04:40:00,22.9,16.5,-100.00,North,-999,-999.0,-999.0,76,-99.99,,,-99.99,,2013-02-08 09:40:00,
2013-02-08 04:50:00,22.9,16.7,-100.00,North,-999,-999.0,-999.0,77,-99.99,,,-99.99,,2013-02-08 09:50:00,
2013-02-08 05:00:00,23.0,16.9,-100.00,North,-999,-999.0,-999.0,77,-99.99,,,-99.99,,2013-02-08 10:00:00,
2013-02-08 05:10:00,23.0,16.9,-100.00,North,-999,-999.0,-999.0,77,-99.99,,,-99.99,,2013-02-08 10:10:00,
2013-02-08 05:20:00,-1.0,0.0,-100.00,North,-999,-999.0,-999.0,0,-99.99,,,-99.99,,2013-02-08 10:20:00,
2013-02-08 05:30:00,23.2,17.4,-100.00,North,-999,-999.0,-999.0,78,-99.99,,,-99.99,,2013-02-08 10:30:00,
2013-02-08 05:40:00,-1.0,0.0,-100.00,North,-999,-999.0,-999.0,0,-99.99,,,-99.99,,2013-02-08 10:40:00,
2013-02-08 05:50:00,-1.0,0.0,-100.00,North,-999,-999.0,-999.0,0,-99.99,,,-99.99,,2013-02-08 10:50:00,
2013-02-08 06:01:00,23.4,17.8,-100.00,North,-999,-999.0,-999.0,79,-99.99,,,-99.99,,2013-02-08 11:01:00,
2013-02-08 06:10:00,-1.0,0.0,-100.00,North,-999,-999.0,-999.0,0,-99.99,,,-99.99,,2013-02-08 11:10:00,
2013-02-08 06:20:00,-1.0,0.0,-100.00,North,-999,-999.0,-999.0,0,-99.99,,,-99.99,,2013-02-08 11:20:00,
2013-02-08 06:30:00,23.6,18.3,-100.00,North,-999,-999.0,-999.0,80,-99.99,,,-99.99,,2013-02-08 11:30:00,
2013-02-08 06:40:00,-1.0,0.0,-100.00,North,-999,-999.0,-999.0,0,-99.99,,,-99.99,,2013-02-08 11:40:00,
2013-02-08 06:50:00,-1.0,0.0,-100.00,North,-999,-999.0,-999.0,0,-99.99,,,-99.99,,2013-02-08 11:50:00,
2013-02-08 07:01:00,23.9,18.7,-100.00,North,-999,-999.0,-999.0,80,-99.99,,,-99.99,,2013-02-08 12:01:00,
2013-02-08 07:10:00,24.1,19.2,-100.00,North,-999,-999.0,-999.0,81,-99.99,,,-99.99,,2013-02-08 12:10:00,
2013-02-08 07:20:00,24.1,19.4,-100.00,North,-999,-999.0,-999.0,82,-99.99,,,-99.99,,2013-02-08 12:20:00,
2013-02-08 07:30:00,24.5,19.8,-100.00,North,-999,-999.0,-999.0,82,-99.99,,,-99.99,,2013-02-08 12:30:00,
2013-02-08 07:40:00,24.7,19.8,-100.00,North,-999,-999.0,-999.0,81,-99.99,,,-99.99,,2013-02-08 12:40:00,
2013-02-08 07:50:00,24.8,20.1,-100.00,North,-999,-999.0,-999.0,82,-99.99,,,-99.99,,2013-02-08 12:50:00,
2013-02-08 08:01:00,-1.0,0.0,-100.00,North,-999,-999.0,-999.0,0,-99.99,,,-99.99,,2013-02-08 13:01:00,
2013-02-08 08:10:00,25.4,20.5,-100.00,North,-999,-999.0,-999.0,81,-99.99,,,-99.99,,2013-02-08 13:10:00,
2013-02-08 08:20:00,25.6,20.7,-100.00,North,-999,-999.0,-999.0,81,-99.99,,,-99.99,,2013-02-08 13:20:00,
2013-02-08 08:30:00,25.6,20.7,-100.00,North,-999,-999.0,-999.0,81,-99.99,,,-99.99,,2013-02-08 13:30:00,
2013-02-08 08:40:00,25.9,20.8,-100.00,North,-999,-999.0,-999.0,81,-99.99,,,-99.99,,2013-02-08 13:40:00,
2013-02-08 08:50:00,26.1,21.0,-100.00,North,-999,-999.0,-999.0,81,-99.99,,,-99.99,,2013-02-08 13:50:00,
2013-02-08 09:01:00,26.3,21.2,-100.00,North,-999,-999.0,-999.0,81,-99.99,,,-99.99,,2013-02-08 14:01:00,
2013-02-08 09:10:00,26.3,21.2,-100.00,North,-999,-999.0,-999.0,81,-99.99,,,-99.99,,2013-02-08 14:10:00,
2013-02-08 09:20:00,27.2,22.1,-100.00,North,-999,-999.0,-999.0,81,-99.99,,,-99.99,,2013-02-08 14:20:00,
2013-02-08 09:30:00,28.3,23.9,-100.00,North,-999,-999.0,-999.0,83,-99.99,,,-99.99,,2013-02-08 14:30:00,
2013-02-08 09:40:00,27.9,23.2,-100.00,North,-999,-999.0,-999.0,82,-99.99,,,-99.99,,2013-02-08 14:40:00,
2013-02-08 09:50:00,-1.0,0.0,-100.00,North,-999,-999.0,-999.0,0,-99.99,,,-99.99,,2013-02-08 14:50:00,
2013-02-08 10:00:00,28.3,23.5,-100.00,North,-999,-999.0,-999.0,82,-99.99,,,-99.99,,2013-02-08 15:00:00,
2013-02-08 10:10:00,27.7,23.0,-100.00,North,-999,-999.0,-999.0,82,-99.99,,,-99.99,,2013-02-08 15:10:00,
2013-02-08 10:20:00,28.4,23.5,-100.00,North,-999,-999.0,-999.0,82,-99.99,,,-99.99,,2013-02-08 15:20:00,
2013-02-08 10:30:00,29.0,24.3,-100.00,North,-999,-999.0,-999.0,82,-99.99,,,-99.99,,2013-02-08 15:30:00,
2013-02-08 10:40:00,-1.0,0.0,-100.00,North,-999,-999.0,-999.0,0,-99.99,,,-99.99,,2013-02-08 15:40:00,
2013-02-08 10:50:00,-1.0,0.0,-100.00,North,-999,-999.0,-999.0,0,-99.99,,,-99.99,,2013-02-08 15:50:00,
2013-02-08 11:00:00,29.5,25.0,-100.00,North,-999,-999.0,-999.0,83,-99.99,,,-99.99,,2013-02-08 16:00:00,
2013-02-08 11:10:00,-1.0,0.0,-100.00,North,-999,-999.0,-999.0,0,-99.99,,,-99.99,,2013-02-08 16:10:00,
2013-02-08 11:20:00,29.5,24.4,-100.00,North,-999,-999.0,-999.0,81,-99.99,,,-99.99,,2013-02-08 16:20:00,
2013-02-08 11:30:00,29.9,24.8,-100.00,North,-999,-999.0,-999.0,81,-99.99,,,-99.99,,2013-02-08 16:30:00,
2013-02-08 11:40:00,29.9,24.8,-100.00,North,-999,-999.0,-999.0,81,-99.99,,,-99.99,,2013-02-08 16:40:00,
2013-02-08 11:50:00,-1.0,0.0,-100.00,North,-999,-999.0,-999.0,0,-99.99,,,-99.99,,2013-02-08 16:50:00,
2013-02-08 12:01:00,29.5,24.6,-100.00,North,-999,-999.0,-999.0,82,-99.99,,,-99.99,,2013-02-08 17:01:00,
2013-02-08 12:10:00,-1.0,0.0,-100.00,North,-999,-999.0,-999.0,0,-99.99,,,-99.99,,2013-02-08 17:10:00,
2013-02-08 12:20:00,-1.0,0.0,-100.00,North,-999,-999.0,-999.0,0,-99.99,,,-99.99,,2013-02-08 17:20:00,
2013-02-08 12:30:00,30.1,25.5,-100.00,North,-999,-999.0,-999.0,83,-99.99,,,-99.99,,2013-02-08 17:30:00,
2013-02-08 12:40:00,-1.0,0.0,-100.00,North,-999,-999.0,-999.0,0,-99.99,,,-99.99,,2013-02-08 17:40:00,
2013-02-08 12:50:00,29.5,24.6,-100.00,North,-999,-999.0,-999.0,82,-99.99,,,-99.99,,2013-02-08 17:50:00,
2013-02-08 13:01:00,-1.0,0.0,-100.00,North,-999,-999.0,-999.0,0,-99.99,,,-99.99,,2013-02-08 18:01:00,
2013-02-08 13:10:00,-1.0,0.0,-100.00,North,-999,-999.0,-999.0,0,-99.99,,,-99.99,,2013-02-08 18:10:00,
2013-02-08 13:20:00,-1.0,0.0,-100.00,North,-999,-999.0,-999.0,0,-99.99,,,-99.99,,2013-02-08 18:20:00,
2013-02-08 13:30:00,29.9,25.7,-100.00,North,-999,-999.0,-999.0,84,-99.99,,,-99.99,,2013-02-08 18:30:00,
2013-02-08 13:40:00,-1.0,0.0,-100.00,North,-999,-999.0,-999.0,0,-99.99,,,-99.99,,2013-02-08 18:40:00,
2013-02-08 13:50:00,-1.0,0.0,-100.00,North,-999,-999.0,-999.0,0,-99.99,,,-99.99,,2013-02-08 18:50:00,
2013-02-08 14:01:00,27.9,23.2,-100.00,North,-999,-999.0,-999.0,82,-99.99,,,-99.99,,2013-02-08 19:01:00,
2013-02-08 14:10:00,-1.0,0.0,-100.00,North,-999,-999.0,-999.0,0,-99.99,,,-99.99,,2013-02-08 19:10:00,
2013-02-08 14:20:00,-1.0,0.0,-100.00,North,-999,-999.0,-999.0,0,-99.99,,,-99.99,,2013-02-08 19:20:00,
2013-02-08 14:30:00,25.9,21.4,-100.00,North,-999,-999.0,-999.0,83,-99.99,,,-99.99,,2013-02-08 19:30:00,
2013-02-08 14:40:00,-1.0,0.0,-100.00,North,-999,-999.0,-999.0,0,-99.99,,,-99.99,,2013-02-08 19:40:00,
2013-02-08 14:50:00,-1.0,0.0,-100.00,North,-999,-999.0,-999.0,0,-99.99,,,-99.99,,2013-02-08 19:50:00,
2013-02-08 15:00:00,25.4,21.2,-100.00,North,-999,-999.0,-999.0,84,-99.99,,,-99.99,,2013-02-08 20:00:00,
2013-02-08 15:10:00,-1.0,0.0,-100.00,North,-999,-999.0,-999.0,0,-99.99,,,-99.99,,2013-02-08 20:10:00,
2013-02-08 15:20:00,25.0,20.8,-100.00,North,-999,-999.0,-999.0,84,-99.99,,,-99.99,,2013-02-08 20:20:00,
2013-02-08 15:30:00,24.8,21.0,-100.00,North,-999,-999.0,-999.0,85,-99.99,,,-99.99,,2013-02-08 20:30:00,
2013-02-08 15:40:00,-1.0,0.0,-100.00,North,-999,-999.0,-999.0,0,-99.99,,,-99.99,,2013-02-08 20:40:00,
2013-02-08 15:50:00,-1.0,0.0,-100.00,North,-999,-999.0,-999.0,0,-99.99,,,-99.99,,2013-02-08 20:50:00,
2013-02-08 16:01:00,-1.0,0.0,-100.00,North,-999,-999.0,-999.0,0,-99.99,,,-99.99,,2013-02-08 21:01:00,
2013-02-08 16:10:00,24.1,20.5,-100.00,North,-999,-999.0,-999.0,86,-99.99,,,-99.99,,2013-02-08 21:10:00,
2013-02-08 16:20:00,-1.0,0.0,-100.00,North,-999,-999.0,-999.0,0,-99.99,,,-99.99,,2013-02-08 21:20:00,
2013-02-08 16:30:00,23.9,20.3,-100.00,North,-999,-999.0,-999.0,86,-99.99,,,-99.99,,2013-02-08 21:30:00,
2013-02-08 16:40:00,23.9,20.7,-100.00,North,-999,-999.0,-999.0,87,-99.99,,,-99.99,,2013-02-08 21:40:00,
2013-02-08 16:50:00,-1.0,0.0,-100.00,North,-999,-999.0,-999.0,0,-99.99,,,-99.99,,2013-02-08 21:50:00,
2013-02-08 17:01:00,23.8,20.5,-100.00,North,-999,-999.0,-999.0,87,-99.99,,,-99.99,,2013-02-08 22:01:00,
2013-02-08 17:10:00,-1.0,0.0,-100.00,North,-999,-999.0,-999.0,0,-99.99,,,-99.99,,2013-02-08 22:10:00,
2013-02-08 17:20:00,23.6,20.3,-100.00,North,-999,-999.0,-999.0,87,-99.99,,,-99.99,,2013-02-08 22:20:00,
2013-02-08 17:30:00,23.4,20.1,-100.00,North,-999,-999.0,-999.0,87,-99.99,,,-99.99,,2013-02-08 22:30:00,
2013-02-08 17:40:00,-1.0,0.0,-100.00,North,-999,-999.0,-999.0,0,-99.99,,,-99.99,,2013-02-08 22:40:00,
2013-02-08 17:50:00,-1.0,0.0,-100.00,North,-999,-999.0,-999.0,0,-99.99,,,-99.99,,2013-02-08 22:50:00,
2013-02-08 18:00:00,23.2,20.1,-100.00,North,-999,-999.0,-999.0,88,-99.99,,,-99.99,,2013-02-08 23:00:00,
2013-02-08 18:10:00,23.0,19.9,-100.00,North,-999,-999.0,-999.0,88,-99.99,,,-99.99,,2013-02-08 23:10:00,
2013-02-08 18:20:00,-1.0,0.0,-100.00,North,-999,-999.0,-999.0,0,-99.99,,,-99.99,,2013-02-08 23:20:00,
2013-02-08 18:30:00,22.9,19.9,-100.00,North,-999,-999.0,-999.0,88,-99.99,,,-99.99,,2013-02-08 23:30:00,
2013-02-08 18:40:00,-1.0,0.0,-100.00,North,-999,-999.0,-999.0,0,-99.99,,,-99.99,,2013-02-08 23:40:00,
2013-02-08 18:50:00,-1.0,0.0,-100.00,North,-999,-999.0,-999.0,0,-99.99,,,-99.99,,2013-02-08 23:50:00,
2013-02-08 19:00:00,22.5,19.6,-100.00,North,-999,-999.0,-999.0,88,-99.99,,,-99.99,,2013-02-09 00:00:00,
2013-02-08 19:10:00,22.5,19.6,-100.00,North,-999,-999.0,-999.0,88,-99.99,,,-99.99,,2013-02-09 00:10:00,
2013-02-08 19:20:00,22.5,19.6,-100.00,North,-999,-999.0,-999.0,88,-99.99,,,-99.99,,2013-02-09 00:20:00,
2013-02-08 19:30:00,22.3,19.2,-100.00,North,-999,-999.0,-999.0,88,-99.99,,,-99.99,,2013-02-09 00:30:00,
2013-02-08 19:40:00,22.3,19.2,-100.00,North,-999,-999.0,-999.0,88,-99.99,,,-99.99,,2013-02-09 00:40:00,
2013-02-08 19:50:00,22.3,19.2,-100.00,North,-999,-999.0,-999.0,88,-99.99,,,-99.99,,2013-02-09 00:50:00,
2013-02-08 20:01:00,-1.0,0.0,-100.00,North,-999,-999.0,-999.0,0,-99.99,,,-99.99,,2013-02-09 01:01:00,
2013-02-08 20:10:00,-1.0,0.0,-100.00,North,-999,-999.0,-999.0,0,-99.99,,,-99.99,,2013-02-09 01:10:00,
2013-02-08 20:20:00,-1.0,0.0,-100.00,North,-999,-999.0,-999.0,0,-99.99,,,-99.99,,2013-02-09 01:20:00,
2013-02-08 20:30:00,21.4,18.3,-100.00,North,-999,-999.0,-999.0,88,-99.99,,,-99.99,,2013-02-09 01:30:00,
2013-02-08 20:40:00,-1.0,0.0,-100.00,North,-999,-999.0,-999.0,0,-99.99,,,-99.99,,2013-02-09 01:40:00,
2013-02-08 20:50:00,20.9,18.0,-100.00,North,-999,-999.0,-999.0,88,-99.99,,,-99.99,,2013-02-09 01:50:00,
2013-02-08 21:01:00,20.7,17.8,-100.00,North,-999,-999.0,-999.0,88,-99.99,,,-99.99,,2013-02-09 02:01:00,
2013-02-08 21:10:00,-1.0,0.0,-100.00,North,-999,-999.0,-999.0,0,-99.99,,,-99.99,,2013-02-09 02:10:00,
2013-02-08 21:20:00,-1.0,0.0,-100.00,North,-999,-999.0,-999.0,0,-99.99,,,-99.99,,2013-02-09 02:20:00,
2013-02-08 21:30:00,19.8,16.9,-100.00,North,-999,-999.0,-999.0,88,-99.99,,,-99.99,,2013-02-09 02:30:00,
2013-02-08 21:40:00,19.3,16.3,-100.00,North,-999,-999.0,-999.0,88,-99.99,,,-99.99,,2013-02-09 02:40:00,
2013-02-08 21:50:00,-1.0,0.0,-100.00,North,-999,-999.0,-999.0,0,-99.99,,,-99.99,,2013-02-09 02:50:00,
2013-02-08 22:00:00,19.1,16.2,-100.00,North,-999,-999.0,-999.0,88,-99.99,,,-99.99,,2013-02-09 03:00:00,
2013-02-08 22:10:00,18.7,15.8,-100.00,North,-999,-999.0,-999.0,88,-99.99,,,-99.99,,2013-02-09 03:10:00,
2013-02-08 22:20:00,-1.0,0.0,-100.00,North,-999,-999.0,-999.0,0,-99.99,,,-99.99,,2013-02-09 03:20:00,
2013-02-08 22:30:00,18.2,15.3,-100.00,North,-999,-999.0,-999.0,88,-99.99,,,-99.99,,2013-02-09 03:30:00,
2013-02-08 22:40:00,-1.0,0.0,-100.00,North,-999,-999.0,-999.0,0,-99.99,,,-99.99,,2013-02-09 03:40:00,
2013-02-08 22:50:00,-1.0,0.0,-100.00,North,-999,-999.0,-999.0,0,-99.99,,,-99.99,,2013-02-09 03:50:00,
2013-02-08 23:00:00,17.3,14.4,-100.00,North,-999,-999.0,-999.0,88,-99.99,,,-99.99,,2013-02-09 04:00:00,
2013-02-08 23:10:00,16.9,14.0,-100.00,North,-999,-999.0,-999.0,88,-99.99,,,-99.99,,2013-02-09 04:10:00,
2013-02-08 23:20:00,16.6,13.5,-100.00,North,-999,-999.0,-999.0,87,-99.99,,,-99.99,,2013-02-09 04:20:00,
2013-02-08 23:30:00,16.6,13.5,-100.00,North,-999,-999.0,-999.0,87,-99.99,,,-99.99,,2013-02-09 04:30:00,
2013-02-08 23:40:00,16.2,13.1,-100.00,North,-999,-999.0,-999.0,87,-99.99,,,-99.99,,2013-02-09 04:40:00,
2013-02-08 23:50:00,16.0,12.7,-100.00,North,-999,-999.0,-999.0,87,-99.99,,,-99.99,,2013-02-09 04:50:00,